San Diego Montgomery, CA

1:30 AM PDT on October 21, 2017 (GMT -0700)
Montgomery

Weather History for KMYF - April, 2017

Change the Weather History Date:

Friday, April 21, 2017

  Actual Average Record
Temperature  
Mean Temperature 70 °F 61 °F  
Max Temperature 87 °F 70 °F 87 °F (2009)
Min Temperature 53 °F 53 °F 47 °F (2007)
Degree Days  
Heating Degree Days 0 4  
Month to date heating degree days 49 117  
Since 1 July heating degree days 988 1416  
Cooling Degree Days 5 1  
Month to date cooling degree days 11 8  
Year to date cooling degree days 31 17  
Growing Degree Days 20 (Base 50)    
Moisture  
Dew Point 49 °F    
Average Humidity 48    
Maximum Humidity 77    
Minimum Humidity 18    
Precipitation  
Precipitation T in 0.03 in 0.22 in (2010)
Month to date precipitation 0.02 0.60  
Year to date precipitation 9.45 7.80  
Sea Level Pressure  
Sea Level Pressure 29.90 in    
Wind  
Wind Speed 4 mph (WNW)    
Max Wind Speed 14 mph    
Max Gust Speed 18 mph    
Visibility 10 miles    
Events      
T = Trace of Precipitation, MM = Missing Value Source: NWS Daily Summary

Daily Weather History Graph

Daily Weather History Graph

Search for Another Location

Airport or City:

Trip Planner

Search our weather history database for the weather conditions in past years. The results will help you decide how hot, cold, wet, or windy it might be!

Date:

Astronomy

Apr. 21, 2017 Rise Set
Actual Time 6:11 AM PDT 7:23 PM PDT
Civil Twilight 5:45 AM PDT 7:49 PM PDT
Nautical Twilight 5:15 AM PDT 8:19 PM PDT
Astronomical Twilight 4:43 AM PDT 8:51 PM PDT
Moon 3:11 AM PDT 2:30 PM PDT
Length of Visible Light 14h 03m
Length of Day
13h 11m
Waning Crescent, 27% of the Moon is Illuminated
Apr 21
Waning Crescent
Apr 26
New
May 2
First Quarter
May 10
Full
May 18
Last Quarter

Hourly Weather History & Observations

Time (PDT) Temp. Dew Point Humidity Pressure Visibility Wind Dir Wind Speed Gust Speed Precip Events Conditions
12:53 AM 57.0 °F 46.9 °F 69% 29.98 in 10.0 mi Calm Calm - N/A   Clear
1:53 AM 57.9 °F 48.0 °F 70% 29.97 in 10.0 mi Calm Calm - N/A   Clear
2:53 AM 57.0 °F 48.9 °F 74% 29.94 in 10.0 mi NNE 3.5 mph - N/A   Clear
3:53 AM 57.0 °F 48.9 °F 74% 29.93 in 10.0 mi North 3.5 mph - N/A   Clear
4:53 AM 55.9 °F 46.9 °F 72% 29.92 in 10.0 mi NNE 3.5 mph - N/A   Clear
5:53 AM 53.1 °F 46.0 °F 77% 29.91 in 10.0 mi SE 4.6 mph - N/A   Clear
6:53 AM 57.9 °F 46.9 °F 67% 29.93 in 10.0 mi NNW 3.5 mph - N/A   Clear
7:53 AM 64.0 °F 46.9 °F 54% 29.93 in 10.0 mi Calm Calm - N/A   Clear
8:53 AM 68.0 °F 46.9 °F 47% 29.93 in 10.0 mi WNW 4.6 mph - N/A   Clear
9:53 AM 72.0 °F 46.0 °F 40% 29.93 in 10.0 mi WSW 4.6 mph - 0.00 in   Clear
10:53 AM 75.9 °F 46.9 °F 36% 29.91 in 10.0 mi Calm Calm - N/A   Clear
11:53 AM 82.0 °F 46.9 °F 29% 29.89 in 10.0 mi NNW 6.9 mph - N/A   Clear
12:53 PM 84.0 °F 44.1 °F 25% 29.87 in 10.0 mi Variable 5.8 mph - N/A   Clear
1:53 PM 86.0 °F 37.0 °F 18% 29.86 in 10.0 mi WNW 10.4 mph - N/A   Clear
2:53 PM 79.0 °F 51.1 °F 38% 29.86 in 10.0 mi NW 10.4 mph - N/A   Clear
3:53 PM 77.0 °F 48.9 °F 37% 29.86 in 10.0 mi NW 10.4 mph - N/A   Clear
4:53 PM 77.0 °F 46.9 °F 34% 29.85 in 10.0 mi WNW 6.9 mph - N/A   Clear
5:53 PM 75.9 °F 45.0 °F 33% 29.85 in 10.0 mi West 6.9 mph - N/A   Clear
6:53 PM 71.1 °F 55.0 °F 57% 29.85 in 10.0 mi WSW 6.9 mph - N/A   Clear
7:53 PM 66.9 °F 55.9 °F 68% 29.86 in 10.0 mi SW 3.5 mph - N/A   Clear
8:53 PM 66.0 °F 55.9 °F 70% 29.88 in 10.0 mi West 3.5 mph - N/A   Clear
9:53 PM 64.9 °F 55.0 °F 70% 29.89 in 10.0 mi ESE 3.5 mph - N/A   Clear
10:53 PM 64.0 °F 53.1 °F 67% 29.89 in 10.0 mi Calm Calm - N/A   Clear
11:53 PM 63.0 °F 50.0 °F 63% 29.88 in 10.0 mi Calm Calm - N/A   Clear